RH
72 36 39 32 45 59 76 72 65 72 78 65 54 59 69 62 65 82 43 42 47 59 61 70 67 74 80 78 68 72 84 83 84 85 87 86 86 82 86 85 80 80 80 85 82 80 82 85 87
64 29 23 32 50 72 68 64 74 74 63 58 55 55 61 58 51 45 39 38 45 51 56 65 58 68 64 81 63 66 74 83 83 84 85 87 87 82 82 86 84 80 78 79 84 80 83 88 91
31 28 28 45 58 74 65 61 65 61 54 50 46 36 41 47 36 42 40 43 49 50 43 48 48 57 73 69 68 60 62 75 82 82 84 86 89 89 85 83 84 82 78 85 85 81 88 92 92
24 20 25 40 56 50 46 51 50 51 47 37 36 39 31 30 34 32 32 42 44 46 45 45 47 48 52 68 68 62 61 64 78 80 83 83 86 89 91 89 82 83 84 82 85 79 86 90 92
24 21 28 31 29 25 22 25 26 27 25 30 31 38 36 31 31 32 32 31 44 47 50 42 45 46 47 48 59 65 60 63 67 78 80 82 83 87 90 94 90 84 78 80 86 83 91 87 90
20 21 31 35 30 23 20 20 18 20 22 25 31 31 35 28 31 31 34 38 40 44 49 49 41 43 45 46 48 54 57 61 62 69 78 81 82 85 86 94 95 90 83 92 89 87 89 92 88
17 20 31 33 29 23 19 16 19 20 21 23 22 31 32 28 29 30 32 35 39 49 52 53 53 44 49 49 52 54 52 56 62 66 73 78 82 83 85 88 93 93 95 92 90 92 92 90 88
14 18 26 30 26 26 17 16 17 20 24 18 21 31 38 28 23 22 32 39 41 40 53 48 50 50 42 45 44 45 46 55 62 66 67 75 78 82 82 86 88 92 95 95 90 94 92 93 92
10 15 24 25 23 21 16 21 19 16 20 20 22 24 22 20 18 18 20 21 32 32 38 49 48 47 43 35 38 48 50 56 67 74 71 77 78 79 79 83 87 92 94 96 95 94 95 94 93
14 18 21 18 17 17 18 21 18 18 20 22 21 19 16 18 16 18 18 20 23 32 32 50 49 48 40 32 40 45 42 62 67 75 84 77 78 80 75 82 85 91 93 94 98 95 94 93 97
17 19 18 16 13 14 16 17 14 16 19 18 19 17 16 15 16 15 16 18 21 31 33 32 45 49 44 47 43 44 41 62 54 76 82 85 82 89 80 82 86 95 93 96 96 94 89 89 98
14 14 14 13 12 13 15 15 16 16 18 16 16 15 16 20 17 16 18 18 21 25 31 31 45 46 45 47 51 53 46 46 50 65 76 82 80 94 92 85 85 94 96 96 97 98 95 86 97
13 13 12 12 12 13 12 16 15 17 14 14 14 14 16 16 19 19 17 21 23 26 34 32 45 48 45 48 50 49 51 55 58 53 76 84 87 88 93 94 91 93 96 97 98 97 96 90 96
13 12 13 12 14 14 14 17 19 18 14 14 14 16 15 14 15 16 17 21 20 19 34 32 44 49 44 48 45 48 50 51 50 46 78 76 84 90 89 94 96 93 95 97 98 98 98 98 97
12 14 14 15 14 14 16 19 17 17 14 14 14 15 14 14 14 15 16 19 21 21 30 31 44 51 44 44 46 47 48 52 50 51 78 76 79 80 91 95 97 96 95 95 96 97 96 98 97
14 16 17 12 12 13 16 24 15 17 16 16 14 11 12 14 14 16 16 19 20 22 27 26 25 49 45 45 46 46 48 57 53 57 69 75 76 74 83 94 95 96 96 96 96 98 98 97 99
16 18 15 14 11 12 15 18 14 13 12 12 13 13 13 16 16 28 17 18 19 19 26 30 37 47 44 43 49 45 43 47 53 53 52 70 74 73 82 91 96 95 97 96 96 97 98 98 98
20 18 18 17 15 16 14 13 13 13 12 13 14 16 15 14 16 17 19 22 22 25 26 29 45 48 48 52 42 44 48 52 54 52 58 64 77 72 80 88 94 95 97 96 96 96 96 98 99
16 18 17 19 14 20 18 18 15 14 18 28 16 13 14 19 19 20 21 23 24 27 33 35 50 48 48 49 58 46 56 53 51 55 52 56 75 73 80 87 94 96 96 97 95 97 97 98 99
17 20 22 17 13 17 17 17 17 12 14 22 13 17 23 19 18 20 23 26 28 35 37 47 48 53 60 64 55 51 56 57 55 52 50 64 70 74 78 87 95 96 96 95 96 96 98 98 99
19 22 22 19 14 15 18 24 14 13 12 13 19 23 20 19 22 22 23 29 29 33 46 48 55 56 62 62 55 55 57 59 59 48 61 84 79 79 82 88 95 96 96 97 97 97 97 98 98
25 19 16 16 21 29 18 44 20 15 23 21 22 23 25 23 23 25 25 26 26 42 50 50 51 58 54 56 53 53 71 64 51 66 70 78 72 70 79 89 93 95 95 95 97 97 98 98 98
20 19 19 20 25 30 25 29 32 29 28 24 23 21 25 39 26 27 27 28 31 43 52 59 60 60 59 60 58 65 59 68 64 75 72 73 71 72 70 88 92 95 95 94 96 97 98 98 98
14 20 22 24 28 54 30 28 58 48 31 24 22 23 23 22 29 26 27 28 32 40 53 56 51 50 51 51 57 58 66 68 69 69 80 80 82 82 84 84 88 92 94 95 95 97 97 98 98
23 37 54 44 55 59 37 48 63 36 26 26 31 30 24 24 29 29 31 33 38 42 47 47 48 47 48 57 57 62 57 60 65 72 81 82 86 86 82 79 82 83 87 92 94 96 97 98 99
24 35 74 53 82 71 40 62 68 29 24 28 26 31 23 23 25 29 32 38 37 40 50 51 48 48 53 55 56 62 67 71 74 76 82 86 84 85 83 75 76 79 85 89 93 97 98 98 99
26 36 29 49 59 73 70 58 52 26 31 30 31 32 31 23 26 29 33 39 39 40 53 53 47 49 59 62 68 65 67 72 80 82 84 90 87 78 74 74 78 78 79 89 92 98 97 98 97
28 25 55 80 79 73 74 60 80 44 40 34 38 38 32 26 23 28 33 39 40 41 49 53 51 52 57 65 63 65 78 80 85 87 87 87 80 80 70 74 78 77 79 84 92 96 94 96 96
31 35 50 52 65 80 87 80 69 43 42 43 40 36 33 29 25 26 32 34 35 40 45 54 52 57 53 61 66 71 74 79 84 89 92 88 84 75 72 72 75 74 78 82 90 93 91 94 94
24 34 36 72 60 68 84 78 44 37 34 48 43 35 36 27 22 24 27 32 33 36 39 52 54 55 52 56 68 70 76 80 85 93 90 85 78 71 71 70 71 76 79 82 87 91 92 94 96
Wind_Speed
9 7 3 3 8 7 7 5 4 5 4 2 7 8 10 11 6 7 2 4 6 6 7 7 21 21 26 31 30 30 30 30 30 29 28 24 23 9 8 8 5 4 13 13 10 8 12 12 13
5 7 2 2 6 5 5 4 6 3 6 10 11 9 5 7 5 5 2 2 2 2 4 5 18 18 21 25 29 29 29 30 29 29 27 27 23 7 8 12 10 9 13 11 8 7 11 12 11
6 6 5 6 5 5 6 5 7 9 14 6 5 8 5 4 4 3 6 7 6 4 4 6 17 19 20 24 23 26 28 28 27 28 28 26 24 19 5 7 9 11 12 6 6 8 11 10 10
4 6 8 12 10 4 6 7 6 9 6 5 11 10 6 5 3 4 6 9 6 3 3 10 21 21 16 16 20 26 27 26 25 27 27 27 25 25 12 1 4 5 6 7 6 2 7 11 11
3 5 11 11 13 11 12 9 10 9 7 9 6 7 6 5 9 9 8 6 8 6 5 8 21 22 21 18 17 23 23 23 25 26 27 25 25 24 23 3 5 6 5 2 3 4 5 8 11
6 7 9 11 10 9 9 10 15 14 12 12 13 9 4 6 7 7 9 8 8 8 6 7 17 22 24 20 20 14 18 22 24 25 26 25 23 25 25 22 15 3 5 7 3 2 3 6 9
17 13 9 10 9 10 8 14 15 13 10 8 8 6 5 3 4 7 9 8 8 8 7 7 7 15 21 17 21 20 19 22 24 23 24 25 24 24 25 23 22 21 7 11 9 8 5 7 7
10 9 13 4 8 7 8 13 13 10 5 2 6 3 3 4 5 5 10 8 8 7 8 7 7 8 11 8 23 25 22 17 16 19 24 23 23 25 24 24 22 21 18 4 14 13 13 10 12
12 12 7 8 7 7 11 7 3 8 8 5 5 5 6 7 4 4 3 4 6 7 8 7 7 7 8 10 16 19 22 18 15 15 20 14 10 13 18 20 22 21 19 18 13 14 13 14 13
10 10 6 5 8 10 8 9 9 6 10 6 6 6 5 1 4 5 5 4 5 5 6 7 7 7 7 7 9 10 12 7 5 5 5 7 9 11 15 16 22 22 20 18 10 14 12 11 4
9 10 8 10 12 12 7 5 6 7 6 5 5 5 4 6 6 6 4 5 5 5 5 7 7 6 6 4 4 4 6 5 6 6 5 6 6 7 8 8 8 9 16 8 10 8 5 7 4
21 11 8 8 7 8 7 5 6 8 4 7 8 5 4 2 4 4 3 5 4 6 6 7 7 7 5 3 3 4 4 6 6 5 5 4 4 5 7 7 9 8 8 10 8 6 3 6 5
13 7 8 9 10 8 11 5 6 6 6 6 5 5 8 5 2 2 4 6 5 0 6 7 8 7 4 5 2 4 4 4 5 7 5 3 4 5 5 8 8 8 8 8 7 7 6 3 6
7 10 9 7 5 4 7 2 3 4 6 4 6 9 9 8 9 7 7 8 8 7 10 8 9 8 7 4 3 3 4 4 5 8 3 4 3 3 4 6 7 8 8 7 7 6 5 5 5
10 10 6 5 6 2 4 2 5 9 7 6 10 9 9 10 9 10 9 9 10 8 10 9 9 8 8 6 1 2 4 3 4 6 2 3 3 4 4 4 5 7 8 9 7 6 5 5 3
5 5 5 6 6 4 7 3 7 10 9 10 9 6 7 7 7 6 7 8 9 7 10 9 8 8 8 6 2 1 3 3 4 4 1 3 3 4 4 4 4 6 6 6 6 5 5 4 2
5 3 6 3 2 4 5 2 8 10 9 8 8 8 5 3 2 1 6 6 6 4 7 6 8 8 7 5 3 3 4 3 3 4 5 4 2 3 3 2 4 6 6 6 6 5 4 4 2
5 6 5 7 4 1 5 9 10 9 9 9 8 5 5 8 6 6 7 7 7 8 2 3 6 6 5 5 5 4 4 5 4 5 4 4 2 1 2 2 4 4 6 6 7 7 4 3 4
7 7 7 3 4 2 5 4 6 11 3 2 3 6 7 4 4 6 7 7 8 9 9 7 8 6 6 6 5 2 1 3 4 4 7 7 4 2 2 2 4 4 4 7 8 6 6 2 1
8 5 5 3 5 3 6 6 4 7 4 5 7 4 3 5 6 6 7 8 8 6 8 9 7 7 5 4 3 2 2 3 4 3 7 7 3 2 3 3 4 4 4 6 7 7 5 3 3
6 4 4 3 6 5 4 6 5 2 3 1 4 2 4 5 5 5 7 6 5 5 9 8 7 7 4 1 3 2 3 2 4 5 3 4 6 6 4 5 4 4 3 5 7 6 8 4 2
2 2 4 6 6 2 5 4 4 5 2 5 4 4 5 3 4 5 6 6 8 7 7 7 7 6 2 1 1 1 1 2 1 2 3 5 5 9 5 5 5 3 2 4 5 5 6 6 3
5 2 5 4 3 4 2 3 7 2 3 5 5 5 5 2 7 6 6 7 6 6 6 7 6 4 3 4 3 2 3 2 2 2 6 3 5 5 5 6 6 5 2 3 5 6 6 4 3
9 6 7 3 1 4 2 3 6 1 2 5 4 5 3 5 5 5 6 7 6 5 6 4 4 0 1 2 4 4 3 5 4 4 4 4 4 4 6 6 6 5 5 3 4 5 7 4 4
8 8 5 3 4 7 3 2 11 3 1 2 2 3 4 4 3 5 6 6 6 6 5 5 6 5 4 5 5 2 1 2 3 3 2 4 3 3 7 8 7 4 5 4 5 5 6 5 5
4 3 6 2 2 6 5 4 7 5 2 3 5 1 4 4 3 5 6 6 5 6 6 6 6 5 3 4 4 5 6 3 2 3 3 3 3 4 6 6 5 5 5 5 6 5 5 6 4
6 5 1 1 4 3 5 4 8 3 2 5 6 3 2 4 4 5 7 6 5 5 6 6 4 4 5 6 6 5 5 4 3 4 3 2 5 5 6 6 4 4 6 6 6 4 6 6 5
2 3 2 4 1 5 7 6 6 3 2 5 7 5 3 3 5 4 5 6 5 5 5 5 5 4 4 5 4 3 5 6 5 4 5 4 1 5 7 6 4 5 6 7 7 5 6 6 4
0 1 2 4 5 4 3 9 6 5 2 4 6 4 1 1 3 4 5 6 7 6 5 5 5 6 4 4 4 4 3 5 4 4 3 4 3 5 6 6 3 4 7 8 7 6 6 6 6
0 2 5 6 2 2 4 10 4 8 5 2 6 4 4 2 4 4 3 5 4 5 5 7 5 6 4 3 5 4 4 4 6 4 5 3 4 5 5 5 4 6 7 7 8 7 6 7 9
Wind_Direction
329 323 180 28 71 67 59 42 57 82 76 71 40 70 93 45 30 116 155 43 354 319 329 299 9 9 10 9 13 11 8 11 12 12 7 8 3 356 46 39 50 83 101 74 344 120 114 114 115
330 334 74 15 93 85 66 70 69 62 147 163 125 125 70 82 78 111 138 186 133 360 296 315 10 5 19 15 11 11 11 10 10 11 10 3 6 35 55 56 61 90 111 127 200 156 129 125 119
287 152 81 81 28 96 127 128 139 159 164 164 110 57 73 49 66 103 221 212 203 255 310 302 7 25 16 19 8 15 15 10 10 9 8 6 3 6 52 67 68 80 110 128 220 177 144 134 126
352 24 47 76 79 54 108 160 142 155 165 94 117 77 89 79 85 195 189 204 158 190 350 5 14 12 20 35 10 14 16 11 11 10 7 4 2 2 348 122 106 94 70 105 32 108 157 141 137
66 45 82 80 69 66 67 77 85 83 88 75 87 71 85 130 163 193 199 141 113 83 48 19 17 12 15 8 20 15 8 19 15 12 6 3 1 360 2 345 151 130 151 65 59 26 3 163 150
55 87 91 87 68 46 33 76 81 68 78 93 95 107 106 142 166 221 141 119 115 105 80 42 25 11 6 15 14 32 11 21 15 15 8 5 0 357 360 356 21 274 184 227 176 198 300 309 171
105 104 112 112 95 57 46 38 81 75 41 13 171 102 142 102 217 203 125 118 108 101 89 60 26 13 3 7 9 9 13 17 17 17 12 6 359 357 358 356 0 357 348 192 197 209 209 251 223
114 95 112 108 107 104 70 68 72 78 32 108 19 57 137 182 219 116 123 126 112 92 89 65 40 20 3 350 9 5 2 13 22 18 19 6 4 354 353 353 354 350 345 307 214 202 193 220 246
70 76 82 132 109 125 104 95 78 119 110 52 87 96 149 194 124 75 67 96 92 73 78 71 57 37 11 8 3 358 350 6 26 24 21 15 1 350 350 346 347 348 344 345 228 203 198 218 248
81 73 60 96 124 114 129 135 153 122 112 114 118 137 116 23 102 93 67 61 80 85 73 95 66 52 29 21 9 348 343 337 4 19 8 27 7 355 352 343 347 348 350 348 249 200 207 211 232
26 92 73 74 102 106 101 63 23 115 63 70 85 60 62 27 35 50 51 90 94 133 89 89 90 75 50 21 19 354 344 329 347 7 350 22 6 3 350 342 347 340 349 347 346 234 205 193 197
88 60 70 49 67 86 90 83 64 63 99 99 87 36 344 1 25 41 51 91 82 101 130 113 118 100 71 61 25 334 342 344 340 345 344 37 10 2 350 338 342 342 342 342 344 343 239 179 195
77 97 66 68 69 79 73 72 128 109 114 105 107 210 238 224 190 242 262 131 119 154 162 144 139 127 118 82 25 343 328 338 325 336 328 36 16 357 352 347 345 335 339 337 332 333 330 262 190
133 109 124 93 78 67 124 140 116 153 131 192 194 240 234 202 208 216 227 187 183 203 173 169 152 143 117 99 36 335 317 327 330 319 303 33 19 6 353 347 332 338 330 327 319 316 306 305 202
116 104 116 154 179 138 88 144 219 155 167 226 236 239 240 213 216 221 217 202 196 212 165 175 153 146 126 120 96 335 295 329 332 316 293 32 43 13 339 326 350 325 327 321 323 316 307 290 195
140 133 119 212 186 212 106 259 171 165 176 222 243 262 254 258 238 252 256 230 224 207 165 194 144 143 129 124 128 351 337 313 318 321 338 276 61 30 333 323 327 327 317 323 332 332 320 295 212
211 250 118 135 110 152 173 229 196 181 193 223 238 253 297 299 325 202 13 35 5 238 184 161 143 136 129 107 83 40 343 328 302 327 314 236 109 24 343 320 306 332 330 329 331 331 312 306 280
343 355 87 142 234 352 238 265 186 181 192 218 241 286 310 328 303 49 39 40 27 25 295 141 107 97 85 85 53 42 343 335 328 313 297 289 209 71 3 351 319 333 326 339 334 330 308 260 274
28 36 73 133 150 135 241 342 169 194 174 188 296 325 327 333 37 58 49 34 26 27 30 68 84 65 55 26 30 346 256 291 308 319 303 328 211 180 63 347 326 316 338 332 342 324 325 277 202
55 26 354 273 149 134 273 270 135 161 185 200 241 334 356 23 21 35 44 40 41 57 53 92 97 88 79 76 325 257 274 287 286 6 319 4 324 329 55 6 334 332 357 336 336 356 320 298 329
64 59 340 290 290 237 278 331 155 240 254 174 90 168 25 31 52 37 48 47 43 47 101 101 97 99 98 236 294 300 331 6 9 347 325 6 30 332 11 4 355 343 5 339 341 345 345 325 311
157 124 312 311 21 267 120 273 217 195 82 75 32 13 352 44 43 68 52 39 36 82 99 104 96 101 150 149 82 238 231 295 22 305 321 0 20 327 12 2 341 332 353 1 322 345 325 308 310
248 170 228 284 306 353 348 102 260 148 355 344 344 334 343 13 100 80 87 75 68 90 103 111 120 142 233 263 210 134 2 314 327 360 10 7 333 341 347 350 335 330 321 339 322 354 318 287 285
268 273 205 202 192 13 241 115 271 164 256 308 303 335 25 53 108 95 99 83 75 65 101 112 115 171 202 73 87 48 39 359 351 351 12 336 331 323 325 333 323 316 326 347 330 323 289 304 289
0 11 26 345 15 224 253 18 235 169 42 274 354 26 27 67 104 103 102 90 81 74 77 106 60 19 18 85 62 67 288 350 17 355 7 339 308 309 343 335 318 326 334 335 318 307 296 325 314
297 74 135 265 311 275 233 252 258 195 194 111 51 120 62 38 84 113 126 119 95 88 94 80 59 359 69 82 16 10 36 30 357 23 29 311 316 324 306 312 320 8 347 327 319 323 307 298 282
323 50 192 120 275 28 243 272 331 193 72 40 342 23 34 66 90 114 116 126 118 104 117 119 87 6 67 70 67 25 9 3 357 6 355 333 9 338 335 334 12 2 345 324 328 302 331 323 337
52 231 50 358 327 299 293 312 224 255 348 4 329 342 35 69 67 102 120 140 145 144 144 143 108 83 90 102 76 42 25 1 343 33 14 65 21 318 7 355 13 360 347 346 344 341 352 351 349
186 243 240 146 147 182 297 272 218 201 128 322 312 339 86 73 122 131 143 153 150 162 158 136 120 96 68 91 106 65 4 349 355 70 22 22 347 3 0 353 357 18 3 355 349 357 7 1 16
8 199 150 120 235 257 167 273 252 154 117 21 308 325 359 100 169 145 149 164 164 148 128 146 127 111 94 97 121 82 40 28 34 35 348 325 355 12 340 349 27 46 11 356 357 351 15 11 26